Location: *
(35.8942°N, 23.3025°E)
Time: 02:30:20
(UTC+00:00)

N. Korean satellite - Visible Passes

Search period start: 27 November 2022 00:00
Search period end: 07 December 2022 00:00
Orbit: 422 x 454 km, 97.3° (Epoch: 26 November)

Date Brightness Start Highest point End Pass type
(mag) Time Alt. Az. Time Alt. Az. Time Alt. Az.
27 Nov 7.5 03:25:32 10° NNE 03:28:50 46° E 03:32:07 10° S visible
28 Nov 9.7 02:48:20 10° ENE 02:50:04 13° E 02:51:47 10° SE visible
28 Nov 7.4 04:19:42 10° NNW 04:22:35 25° WNW 04:25:26 10° SW visible
29 Nov 6.4 03:40:38 10° NNE 03:44:04 82° ESE 03:47:26 10° S visible
29 Nov 9.3 15:40:09 10° SSW 15:42:50 23° W 15:45:35 10° NW visible
30 Nov 9.0 03:02:37 10° NE 03:05:17 21° E 03:07:56 10° SSE visible
30 Nov 8.0 04:35:24 10° NNW 04:37:36 16° WNW 04:39:48 10° WSW visible
01 Dec 6.4 03:55:44 10° N 03:59:05 57° WNW 04:02:24 10° SSW visible
01 Dec 9.7 15:56:01 10° SW 15:57:56 14° W 15:59:52 10° WNW visible
02 Dec 8.1 03:17:11 10° NNE 03:20:19 34° E 03:23:25 10° SSE visible
02 Dec 8.4 04:51:46 10° NW 04:52:27 10° WNW 04:53:08 10° W visible
03 Dec 7.0 04:10:50 10° N 04:13:57 33° WNW 04:17:00 10° SW visible
04 Dec 7.0 03:31:50 10° NNE 03:35:11 58° E 03:38:29 10° S visible
05 Dec 9.5 02:54:03 10° NE 02:56:11 16° E 02:58:18 10° SE visible
05 Dec 7.6 04:25:59 10° NNW 04:28:37 21° WNW 04:31:13 10° WSW visible
06 Dec 6.2 03:46:29 10° N 03:49:52 81° WNW 03:53:12 10° SSW visible
06 Dec 9.5 15:46:02 10° SW 15:48:33 20° W 15:51:06 10° NW visible
